Total_Precipitation_Accumulation
0.41 0.41 0.38 0.33 0.30 0.28 0.29 0.29 0.29 0.28 0.29 0.34 0.38 0.39 0.40 0.40 0.39 0.39 0.38 0.38 0.40 0.42 0.41 0.44 0.41 0.34 0.35 0.37 0.36 0.37 0.37 0.34 0.31 0.29 0.27 0.23 0.23 0.30 0.27 0.20 0.16 0.14 0.12
0.58 0.63 0.69 0.66 0.60 0.51 0.38 0.33 0.34 0.37 0.37 0.37 0.39 0.41 0.41 0.44 0.49 0.53 0.51 0.52 0.52 0.50 0.47 0.43 0.35 0.26 0.23 0.20 0.21 0.20 0.22 0.25 0.23 0.22 0.22 0.22 0.25 0.29 0.31 0.25 0.20 0.17 0.18
0.83 0.98 1.09 1.06 0.88 0.65 0.46 0.38 0.38 0.40 0.42 0.43 0.46 0.53 0.56 0.58 0.58 0.62 0.63 0.62 0.53 0.45 0.40 0.34 0.27 0.20 0.15 0.12 0.11 0.08 0.08 0.10 0.16 0.20 0.24 0.23 0.23 0.23 0.27 0.28 0.27 0.30 0.26
0.68 0.86 1.00 1.06 0.86 0.64 0.49 0.41 0.34 0.31 0.33 0.37 0.44 0.54 0.63 0.69 0.72 0.68 0.61 0.55 0.47 0.39 0.32 0.26 0.21 0.14 0.09 0.07 0.06 0.05 0.04 0.07 0.13 0.18 0.21 0.22 0.21 0.19 0.23 0.30 0.34 0.41 0.36
0.36 0.53 0.68 0.78 0.63 0.41 0.29 0.23 0.19 0.22 0.30 0.37 0.45 0.52 0.62 0.70 0.71 0.66 0.55 0.49 0.42 0.33 0.24 0.18 0.16 0.12 0.08 0.05 0.04 0.03 0.03 0.05 0.05 0.07 0.09 0.09 0.10 0.11 0.13 0.21 0.34 0.47 0.44
0.28 0.34 0.44 0.49 0.39 0.25 0.12 0.06 0.09 0.14 0.19 0.24 0.28 0.32 0.36 0.41 0.47 0.44 0.37 0.31 0.26 0.21 0.16 0.12 0.09 0.08 0.08 0.06 0.03 0.01 0.01 0.01 0.02 0.04 0.02 0.02 0.04 0.07 0.10 0.21 0.35 0.43 0.52
0.32 0.32 0.37 0.40 0.33 0.20 0.08 0.05 0.05 0.07 0.10 0.11 0.11 0.12 0.13 0.16 0.18 0.16 0.17 0.15 0.13 0.11 0.07 0.04 0.02 0.02 0.03 0.03 0.01 0.00 0.00 0.00 0.00 0.02 0.01 0.01 0.01 0.05 0.10 0.21 0.36 0.53 0.66
0.28 0.28 0.35 0.39 0.35 0.25 0.16 0.11 0.07 0.06 0.06 0.06 0.05 0.03 0.04 0.06 0.07 0.07 0.06 0.05 0.04 0.03 0.03 0.01 0.01 0.01 0.01 0.01 0.01 0.00 0.00 0.00 0.00 0.00 0.00 0.00 0.00 0.02 0.06 0.11 0.20 0.36 0.56
0.24 0.28 0.31 0.37 0.36 0.28 0.23 0.18 0.13 0.08 0.06 0.05 0.04 0.01 0.01 0.01 0.01 0.02 0.02 0.02 0.02 0.01 0.01 0.01 0.01 0.00 0.00 0.00 0.00 0.00 0.00 0.00 0.00 0.00 0.00 0.00 0.00 0.00 0.01 0.02 0.03 0.05 0.15
0.23 0.26 0.29 0.36 0.38 0.32 0.28 0.22 0.16 0.12 0.08 0.04 0.02 0.01 0.00 0.00 0.00 0.00 0.00 0.01 0.01 0.01 0.00 0.00 0.00 0.00 0.00 0.00 0.00 0.00 0.00 0.00 0.00 0.00 0.00 0.00 0.00 0.00 0.00 0.00 0.01 0.02 0.04
0.20 0.22 0.29 0.39 0.41 0.39 0.38 0.34 0.23 0.13 0.08 0.06 0.04 0.03 0.01 0.00 0.00 0.00 0.00 0.01 0.00 0.00 0.00 0.00 0.00 0.00 0.00 0.00 0.00 0.00 0.00 0.00 0.00 0.00 0.00 0.00 0.00 0.00 0.00 0.00 0.01 0.02 0.05
0.19 0.24 0.33 0.38 0.34 0.34 0.40 0.41 0.32 0.20 0.10 0.07 0.05 0.04 0.01 0.00 0.00 0.00 0.00 0.00 0.00 0.00 0.00 0.00 0.00 0.00 0.00 0.00 0.00 0.00 0.00 0.00 0.00 0.00 0.00 0.00 0.00 0.00 0.00 0.00 0.00 0.02 0.04
0.24 0.28 0.33 0.35 0.37 0.43 0.44 0.43 0.37 0.26 0.12 0.04 0.02 0.02 0.01 0.00 0.00 0.00 0.00 0.00 0.00 0.00 0.00 0.00 0.00 0.00 0.00 0.00 0.00 0.00 0.00 0.00 0.00 0.00 0.00 0.00 0.00 0.00 0.00 0.00 0.00 0.01 0.03
0.26 0.27 0.29 0.34 0.38 0.45 0.52 0.51 0.43 0.30 0.15 0.06 0.02 0.02 0.01 0.01 0.00 0.00 0.00 0.00 0.00 0.00 0.00 0.00 0.00 0.00 0.00 0.00 0.00 0.00 0.00 0.00 0.00 0.00 0.00 0.00 0.00 0.00 0.00 0.00 0.00 0.00 0.01
0.34 0.30 0.29 0.31 0.37 0.47 0.54 0.59 0.51 0.39 0.17 0.07 0.04 0.02 0.01 0.02 0.00 0.00 0.00 0.00 0.00 0.00 0.00 0.00 0.00 0.00 0.00 0.00 0.00 0.00 0.00 0.00 0.00 0.00 0.00 0.00 0.00 0.00 0.00 0.00 0.00 0.00 0.00
0.43 0.42 0.38 0.37 0.42 0.46 0.53 0.51 0.41 0.35 0.19 0.07 0.03 0.01 0.01 0.00 0.00 0.00 0.00 0.00 0.00 0.00 0.00 0.00 0.00 0.00 0.00 0.00 0.00 0.00 0.00 0.00 0.00 0.00 0.00 0.00 0.00 0.00 0.00 0.00 0.00 0.00 0.00
0.51 0.52 0.49 0.43 0.45 0.49 0.53 0.52 0.40 0.27 0.20 0.10 0.04 0.02 0.00 0.00 0.00 0.00 0.00 0.00 0.00 0.00 0.00 0.00 0.00 0.00 0.00 0.00 0.00 0.00 0.00 0.00 0.00 0.00 0.00 0.00 0.00 0.00 0.00 0.00 0.00 0.00 0.00
0.55 0.55 0.53 0.50 0.46 0.49 0.53 0.50 0.44 0.31 0.18 0.09 0.04 0.02 0.01 0.00 0.00 0.00 0.00 0.00 0.00 0.00 0.00 0.00 0.00 0.00 0.00 0.00 0.00 0.00 0.00 0.00 0.00 0.00 0.00 0.00 0.00 0.00 0.00 0.00 0.00 0.00 0.00
0.52 0.52 0.50 0.51 0.50 0.49 0.53 0.50 0.40 0.32 0.20 0.12 0.04 0.02 0.01 0.01 0.00 0.00 0.00 0.00 0.00 0.00 0.00 0.00 0.00 0.00 0.00 0.00 0.00 0.00 0.00 0.00 0.00 0.00 0.00 0.00 0.00 0.00 0.00 0.00 0.00 0.00 0.00
0.51 0.48 0.47 0.47 0.47 0.49 0.51 0.48 0.36 0.27 0.20 0.14 0.06 0.02 0.00 0.00 0.00 0.00 0.00 0.00 0.00 0.00 0.00 0.00 0.00 0.00 0.00 0.00 0.00 0.00 0.00 0.00 0.00 0.00 0.00 0.00 0.00 0.00 0.00 0.00 0.00 0.00 0.00
0.50 0.46 0.42 0.42 0.42 0.46 0.49 0.44 0.32 0.20 0.14 0.11 0.06 0.02 0.00 0.00 0.00 0.00 0.00 0.00 0.00 0.00 0.00 0.00 0.00 0.00 0.00 0.00 0.00 0.00 0.00 0.00 0.00 0.00 0.00 0.00 0.00 0.00 0.00 0.00 0.00 0.00 0.00
0.53 0.49 0.40 0.35 0.36 0.41 0.46 0.40 0.30 0.16 0.10 0.08 0.05 0.02 0.01 0.00 0.00 0.00 0.00 0.00 0.00 0.00 0.00 0.00 0.00 0.00 0.00 0.00 0.00 0.00 0.00 0.00 0.00 0.00 0.00 0.00 0.00 0.00 0.00 0.00 0.00 0.00 0.00
0.49 0.47 0.40 0.29 0.29 0.36 0.40 0.35 0.26 0.14 0.08 0.05 0.04 0.02 0.01 0.00 0.00 0.00 0.00 0.00 0.00 0.00 0.00 0.00 0.00 0.00 0.00 0.00 0.00 0.00 0.00 0.00 0.00 0.00 0.00 0.00 0.00 0.00 0.00 0.00 0.00 0.00 0.00
0.42 0.42 0.40 0.28 0.24 0.29 0.30 0.28 0.22 0.12 0.06 0.03 0.02 0.01 0.01 0.00 0.00 0.00 0.00 0.00 0.00 0.00 0.00 0.00 0.00 0.00 0.00 0.00 0.00 0.00 0.00 0.00 0.00 0.00 0.00 0.00 0.00 0.00 0.00 0.00 0.00 0.00 0.00
0.39 0.36 0.38 0.29 0.21 0.23 0.24 0.22 0.19 0.10 0.04 0.02 0.01 0.01 0.00 0.00 0.00 0.00 0.00 0.00 0.00 0.00 0.00 0.00 0.00 0.00 0.00 0.00 0.00 0.00 0.00 0.00 0.00 0.00 0.00 0.00 0.00 0.00 0.00 0.00 0.00 0.00 0.00
0.38 0.35 0.36 0.30 0.19 0.17 0.18 0.17 0.14 0.08 0.03 0.01 0.01 0.00 0.00 0.00 0.00 0.00 0.00 0.00 0.00 0.00 0.00 0.00 0.00 0.00 0.00 0.00 0.00 0.00 0.00 0.00 0.00 0.00 0.00 0.00 0.00 0.00 0.00 0.00 0.00 0.00 0.00